When you browse on this site, cookies collect data to enhance your experience and personalize the content and advertising you see.
Visit our Privacy Policy to learn more. By continuing to use the site, you agree to this use of cookies and data.
  • In Romania
  • List of Countries
  • For 7 days
  • Water Temperature
  • Weather Map
  • Weather Widgets
  • user-avatar
    Login

    Hourly Weather Selfoss

    Today, 23 January, Thursday

    Time Temperature Precipitation Wind Pressure Humidity
    00:00 -5°C° 0.2 mm 14 mps 748 mmHg 70%
    01:00 -6°C° 0.2 mm 14 mps 748 mmHg 66%
    02:00 -6°C° 0.2 mm 14 mps 747 mmHg 62%
    03:00 -7°C° 0.2 mm 15 mps 747 mmHg 61%
    04:00 -7°C° 0.2 mm 15 mps 747 mmHg 60%
    05:00 -5°C° 0 mm 15 mps 747 mmHg 58%
    06:00 -5°C° 0.2 mm 15 mps 747 mmHg 58%
    07:00 -5°C° 0.2 mm 15 mps 747 mmHg 58%
    08:00 -5°C° 0.2 mm 15 mps 747 mmHg 57%
    09:00 -5°C° 0.3 mm 16 mps 746 mmHg 59%
    10:00 -7°C° 0.3 mm 16 mps 746 mmHg 61%
    11:00 -7°C° 0.3 mm 16 mps 746 mmHg 62%
    12:00 -7°C° 0.2 mm 16 mps 746 mmHg 64%
    13:00 -7°C° 0.2 mm 15 mps 745 mmHg 66%
    14:00 -7°C° 0.2 mm 15 mps 745 mmHg 68%
    15:00 -7°C° 0.1 mm 15 mps 745 mmHg 68%
    16:00 -8°C° 0.1 mm 15 mps 745 mmHg 68%
    17:00 -8°C° 0.1 mm 15 mps 745 mmHg 68%
    18:00 -8°C° 0.1 mm 14 mps 745 mmHg 69%
    19:00 -8°C° 0.1 mm 14 mps 745 mmHg 69%
    20:00 -8°C° 0.1 mm 14 mps 746 mmHg 69%
    21:00 -8°C° 0.1 mm 14 mps 746 mmHg 70%
    22:00 -7°C° 0.1 mm 13 mps 747 mmHg 71%
    23:00 -7°C° 0.1 mm 13 mps 748 mmHg 72%

    Tomorrow, 24 January, Friday

    Time Temperature Precipitation Wind Pressure Humidity
    00:00 -6°C° 0.1 mm 12 mps 748 mmHg 74%
    01:00 -5°C° 0.1 mm 10 mps 748 mmHg 75%
    02:00 -5°C° 0.1 mm 9 mps 749 mmHg 77%
    03:00 -5°C° 0.1 mm 8 mps 749 mmHg 79%
    04:00 -4°C° 0.1 mm 7 mps 749 mmHg 80%
    05:00 -4°C° 0.1 mm 6 mps 750 mmHg 82%
    06:00 -5°C° 0 mm 5 mps 750 mmHg 82%
    07:00 -4°C° 0 mm 4 mps 750 mmHg 82%
    08:00 -4°C° 0 mm 3 mps 750 mmHg 82%
    09:00 -3°C° 0 mm 2 mps 750 mmHg 82%
    10:00 -3°C° 0 mm 2 mps 750 mmHg 82%
    11:00 -1°C° 0 mm 1 mps 750 mmHg 83%
    12:00 -3°C° 0 mm 2 mps 749 mmHg 85%
    13:00 -4°C° 0 mm 3 mps 749 mmHg 88%
    14:00 -4°C° 0 mm 4 mps 748 mmHg 90%
    15:00 -4°C° 0.1 mm 4 mps 747 mmHg 88%
    16:00 -5°C° 0.1 mm 5 mps 746 mmHg 86%
    17:00 -5°C° 0.1 mm 5 mps 745 mmHg 84%
    18:00 -5°C° 0.7 mm 6 mps 743 mmHg 87%
    19:00 -6°C° 0.7 mm 7 mps 742 mmHg 90%
    20:00 -6°C° 0.7 mm 8 mps 741 mmHg 93%
    21:00 -6°C° 0.7 mm 9 mps 739 mmHg 90%
    22:00 -5°C° 0.7 mm 9 mps 737 mmHg 86%
    23:00 -4°C° 0.7 mm 10 mps 736 mmHg 83%

    Day after tomorrow, 25 January, Saturday

    Time Temperature Precipitation Wind Pressure Humidity
    00:00 -4°C° 0.6 mm 9 mps 734 mmHg 83%
    01:00 -3°C° 0.6 mm 9 mps 732 mmHg 82%
    02:00 -3°C° 0.6 mm 9 mps 731 mmHg 82%
    03:00 -2°C° 0.6 mm 8 mps 730 mmHg 84%
    04:00 -2°C° 0.6 mm 8 mps 729 mmHg 87%
    05:00 -2°C° 0.6 mm 7 mps 727 mmHg 89%
    06:00 -2°C° 0.1 mm 7 mps 727 mmHg 88%
    07:00 -3°C° 0.1 mm 7 mps 727 mmHg 87%
    08:00 -3°C° 0.1 mm 7 mps 727 mmHg 86%
    09:00 -2°C° 0.8 mm 7 mps 728 mmHg 89%
    10:00 -2°C° 0.8 mm 6 mps 728 mmHg 91%
    11:00 -1°C° 0.8 mm 6 mps 728 mmHg 93%
    12:00 -1°C° 0.3 mm 6 mps 729 mmHg 89%
    13:00 -1°C° 0.3 mm 7 mps 730 mmHg 85%
    14:00 0°C° 0.3 mm 7 mps 730 mmHg 81%
    15:00 -1°C° 0.1 mm 6 mps 730 mmHg 80%
    16:00 -1°C° 0.1 mm 5 mps 731 mmHg 79%
    17:00 -1°C° 0.1 mm 4 mps 731 mmHg 77%
    18:00 -2°C° 0.1 mm 4 mps 731 mmHg 79%
    19:00 -2°C° 0.1 mm 4 mps 730 mmHg 81%
    20:00 -2°C° 0.1 mm 4 mps 730 mmHg 83%
    21:00 -4°C° 0 mm 5 mps 729 mmHg 82%
    22:00 -4°C° 0 mm 6 mps 729 mmHg 81%
    23:00 -5°C° 0 mm 6 mps 728 mmHg 80%

    26 January, Sunday

    Time Temperature Precipitation Wind Pressure Humidity
    00:00 -4°C° 0.1 mm 7 mps 727 mmHg 80%
    01:00 -4°C° 0.1 mm 7 mps 726 mmHg 80%
    02:00 -4°C° 0.1 mm 8 mps 725 mmHg 80%
    03:00 -3°C° 0.5 mm 7 mps 724 mmHg 84%
    04:00 -3°C° 0.5 mm 6 mps 724 mmHg 87%
    05:00 -4°C° 0.5 mm 5 mps 723 mmHg 91%
    06:00 -4°C° 0.1 mm 5 mps 723 mmHg 89%
    07:00 -3°C° 0.1 mm 4 mps 723 mmHg 88%
    08:00 -4°C° 0.1 mm 4 mps 723 mmHg 86%
    09:00 -4°C° 0.1 mm 4 mps 723 mmHg 87%
    10:00 -5°C° 0.1 mm 3 mps 722 mmHg 87%
    11:00 -5°C° 0.1 mm 3 mps 722 mmHg 88%
    12:00 -5°C° 0.1 mm 3 mps 722 mmHg 86%
    13:00 -5°C° 0.1 mm 3 mps 722 mmHg 85%
    14:00 -5°C° 0.1 mm 3 mps 722 mmHg 84%
    15:00 -6°C° 0.1 mm 3 mps 722 mmHg 83%
    16:00 -6°C° 0.1 mm 3 mps 722 mmHg 83%
    17:00 -7°C° 0.1 mm 3 mps 722 mmHg 83%
    18:00 -8°C° 0 mm 4 mps 722 mmHg 83%
    19:00 -8°C° 0 mm 4 mps 722 mmHg 82%
    20:00 -8°C° 0 mm 4 mps 722 mmHg 82%
    21:00 -8°C° 0.1 mm 4 mps 722 mmHg 82%
    22:00 -8°C° 0.1 mm 4 mps 723 mmHg 82%
    23:00 -7°C° 0.1 mm 3 mps 723 mmHg 82%

    27 January, Monday

    Time Temperature Precipitation Wind Pressure Humidity
    00:00 -7°C° 0.2 mm 3 mps 723 mmHg 84%
    01:00 -8°C° 0.2 mm 4 mps 723 mmHg 86%
    02:00 -7°C° 0.2 mm 4 mps 723 mmHg 88%
    03:00 -7°C° 0.9 mm 4 mps 724 mmHg 86%
    04:00 -5°C° 0.9 mm 4 mps 724 mmHg 84%
    05:00 -4°C° 0.9 mm 4 mps 725 mmHg 82%
    06:00 -5°C° 0 mm 5 mps 725 mmHg 82%
    07:00 -6°C° 0 mm 5 mps 726 mmHg 83%
    08:00 -6°C° 0 mm 5 mps 726 mmHg 83%
    09:00 -6°C° 0.1 mm 6 mps 726 mmHg 82%
    10:00 -6°C° 0.1 mm 6 mps 726 mmHg 80%
    11:00 -6°C° 0.1 mm 6 mps 727 mmHg 79%
    12:00 -6°C° 0.1 mm 6 mps 727 mmHg 79%
    13:00 -8°C° 0.1 mm 6 mps 727 mmHg 79%
    14:00 -8°C° 0.1 mm 6 mps 727 mmHg 78%
    15:00 -8°C° 0 mm 6 mps 727 mmHg 77%
    16:00 -8°C° 0 mm 6 mps 727 mmHg 75%
    17:00 -8°C° 0 mm 6 mps 727 mmHg 73%
    18:00 -8°C° 0 mm 6 mps 727 mmHg 70%
    19:00 -8°C° 0 mm 6 mps 728 mmHg 67%
    20:00 -8°C° 0 mm 6 mps 728 mmHg 65%
    21:00 -8°C° 0 mm 6 mps 728 mmHg 61%
    22:00 -8°C° 0 mm 5 mps 729 mmHg 57%
    23:00 -8°C° 0 mm 5 mps 729 mmHg 54%

    28 January, Tuesday

    Time Temperature Precipitation Wind Pressure Humidity
    00:00 -8°C° 0 mm 5 mps 729 mmHg 52%
    01:00 -10°C° 0 mm 5 mps 730 mmHg 51%
    02:00 -11°C° 0 mm 5 mps 730 mmHg 50%
    03:00 -11°C° 0 mm 5 mps 730 mmHg 50%
    04:00 -11°C° 0 mm 5 mps 731 mmHg 51%
    05:00 -11°C° 0 mm 5 mps 731 mmHg 51%
    06:00 -10°C° 0 mm 5 mps 731 mmHg 54%
    07:00 -10°C° 0 mm 6 mps 732 mmHg 57%
    08:00 -10°C° 0 mm 6 mps 732 mmHg 60%
    09:00 -10°C° 0 mm 5 mps 733 mmHg 62%
    10:00 -10°C° 0 mm 5 mps 733 mmHg 64%
    11:00 -10°C° 0 mm 5 mps 733 mmHg 66%
    12:00 -8°C° 0 mm 5 mps 734 mmHg 66%
    13:00 -8°C° 0 mm 5 mps 734 mmHg 67%
    14:00 -8°C° 0 mm 5 mps 735 mmHg 67%
    15:00 -9°C° 0 mm 4 mps 735 mmHg 68%
    16:00 -9°C° 0 mm 4 mps 735 mmHg 69%
    17:00 -10°C° 0 mm 4 mps 736 mmHg 70%
    18:00 -10°C° 0 mm 4 mps 736 mmHg 72%
    19:00 -9°C° 0 mm 3 mps 737 mmHg 75%
    20:00 -9°C° 0 mm 3 mps 737 mmHg 78%
    21:00 -9°C° 0 mm 3 mps 738 mmHg 80%
    22:00 -8°C° 0 mm 3 mps 739 mmHg 81%
    23:00 -8°C° 0 mm 3 mps 739 mmHg 83%
    Show more